Voltar ao catálogo

COSMOS 1275 DEB

AtivoPO
NORAD 13480·DEBRIS·🇷🇺 Russia

Lançado Jun 4, 1981 de Plesetsk Cosmodrome

Loading…

Próximas Passagens (próximas 24 horas)

TLE

AtualizadoSource: Space-Track

Época: Sep 14, 2026, 00:18 UTC

1 13480U 81053GA  26257.01285257  .00001192  00000-0  78981-3 0  9994
2 13480  82.9592  98.7261 0064630 136.8545  18.2348 13.99695114234718

Acompanhe COSMOS 1275 DEB em tempo real com AllMySat

Download on the App Store